[[{"header":{"parameterUnit":"m.s-1","parameterCategory":1,"la1":30.2991,"la2":30.254,"lo1":-89.0895,"lo2":-89.0444,"dy":0.0017,"dx":0.0017,"nx":28,"ny":28,"refTime":"2024-06-15T09:00:00:Z","depth":0,"parameterNumber":2,"parameterNumberName":"U-component_of_WINDS"},"data":[0,0,0,0,0,0,0,0,0,0,0,0,0,0,0,0,0,0,0,0,0,0,0,0,0,0,0,0,0,0,0,0,0,0,0,0,0,0,0,0,0,0,0,0,0,0,0,0,0,0,0,0,0,0,0,0,0,0,-4.2092,-4.2092,0,-4.2089,-4.2089,-4.2089,-4.2028,-4.2027,-4.2025,-4.2024,-4.2021,-4.2023,-4.2024,0,0,0,0,0,0,0,0,0,0,0,0,0,-4.2044,-4.2045,-4.2092,-4.2092,-4.2092,-4.2089,-4.2089,-4.2089,-4.2028,-4.2027,-4.2025,-4.2023,-4.2021,-4.2023,-4.2024,0,0,0,0,0,0,0,0,0,0,0,0,0,-4.2055,-4.2045,-4.2092,-4.2061,-4.2058,-4.2089,-4.2089,-4.2089,-4.2029,-4.2027,-4.2024,-4.2022,-4.202,-4.2022,-4.2025,-4.2085,0,0,-4.2031,-4.2032,0,0,0,0,0,0,0,0,-4.2055,-4.2057,-4.2066,-4.2063,-4.206,-4.2057,-4.2071,-4.2088,-4.2029,-4.204,-4.2024,-4.2021,-4.2035,-4.2036,-4.2041,-4.2085,-4.2085,-4.2031,-4.2033,-4.2033,-4.2034,0,0,0,0,0,0,0,-4.2054,-4.2057,-4.2091,-4.2066,-4.2062,-4.2047,-4.2046,-4.2074,-4.2051,-4.2039,-4.2035,-4.2035,-4.2033,-4.2039,-4.204,-4.2085,-4.2031,-4.2033,-4.2034,-4.2035,-4.2176,-4.2179,0,0,0,0,0,0,-4.2057,-4.2057,-4.2091,-4.2091,-4.2052,-4.205,-4.2049,-4.206,-4.205,-4.2047,-4.2037,-4.2032,-4.2036,-4.2038,-4.204,-4.2107,-4.2033,-4.2035,-4.2037,-4.2174,-4.2177,-4.2179,0,0,0,0,0,0,-4.2057,-4.2061,-4.2091,-4.2072,-4.2075,-4.2054,-4.2066,-4.2061,-4.2067,-4.2049,-4.2044,-4.2047,-4.2034,-4.2037,-4.2074,-4.2106,-4.2036,-4.2038,-4.2171,-4.2175,-4.2178,-4.2244,0,0,0,0,0,0,-4.2055,-4.2061,-4.2084,-4.2073,-4.2076,-4.2125,-4.2069,-4.2063,-4.207,-4.2064,-4.2057,-4.2054,-4.2033,-4.2071,-4.2076,-4.2108,-4.204,-4.2168,-4.2173,-4.2177,-4.2239,-4.225,-4.2259,0,0,0,0,0,-4.2054,-4.2103,-4.2085,-4.209,-4.2104,-4.2127,-4.2128,-4.2103,-4.2074,-4.2096,-4.2084,-4.2054,-4.2103,-4.2075,-4.208,-4.2114,-4.2165,-4.2171,-4.2177,-4.2235,-4.2248,-4.2259,0,0,0,0,0,0,-4.2118,-4.2101,-4.2081,-4.2128,-4.2129,-4.2116,-4.2144,-4.2119,-4.2128,-4.2122,-4.2091,-4.209,-4.2131,-4.2127,-4.2096,-4.2171,-4.2129,-4.2136,-4.2171,-4.2184,-4.2194,-4.2192,-4.2042,0,0,0,0,0,-4.2138,-4.2157,-4.2142,-4.2185,-4.2187,-4.2165,-4.2174,-4.2155,-4.2155,-4.2155,-4.2146,-4.2148,-4.2163,-4.2174,-4.2187,-4.224,-4.2236,-4.2265,-4.2275,-4.2284,-4.2289,-4.2314,-4.2326,-4.2198,-4.2198,-4.2198,0,0,-4.2178,-4.2171,-4.2186,-4.2198,-4.2196,-4.2217,-4.2166,-4.2191,-4.2205,-4.2159,-4.2192,-4.2186,-4.2185,-4.223,-4.2249,-4.2227,-4.2324,-4.2291,-4.2298,-4.2298,-4.2321,-4.2333,-4.2344,-4.2202,-4.2201,-4.22,0,0,-4.2262,-4.226,-4.2294,-4.2294,-4.2292,-4.2278,-4.2286,-4.2277,-4.2271,-4.2304,-4.2269,-4.2287,-4.2315,-4.2315,-4.2319,-4.2404,-4.2375,-4.2409,-4.246,-4.2485,-4.2495,-4.2504,-4.2531,-4.2542,-4.2415,-4.2415,-4.2416,0,-4.2312,-4.2341,-4.2315,-4.2341,-4.2347,-4.2306,-4.234,-4.2342,-4.2345,-4.2349,-4.2326,-4.2359,-4.2356,-4.2398,-4.2419,-4.2425,-4.2432,-4.2408,-4.2496,-4.2505,-4.2512,-4.2538,-4.2549,-4.2419,-4.2419,-4.2418,-4.2418,0,-4.2402,-4.2423,-4.2451,-4.2454,-4.2464,-4.2494,-4.2472,-4.2485,-4.2465,-4.2453,-4.2487,-4.2482,-4.2493,-4.2502,-4.2484,-4.2542,-4.2529,-4.2502,-4.2458,-4.2529,-4.2552,-4.2562,-4.2425,-4.2423,-4.2422,-4.2421,0,0,-4.2523,-4.2512,-4.2522,-4.2522,-4.2518,-4.2533,-4.2562,-4.2572,-4.2583,-4.2587,-4.2609,-4.2634,-4.2608,-4.2612,-4.2594,-4.2617,-4.268,-4.2586,-4.2585,-4.2601,-4.2741,-4.2759,-4.2771,-4.2663,-4.2665,-4.2666,-4.274,0,-4.2601,-4.2648,-4.2625,-4.2674,-4.2693,-4.2655,-4.268,-4.268,-4.267,-4.2684,-4.2673,-4.269,-4.2656,-4.2658,-4.2679,-4.2668,-4.2708,-4.2663,-4.2681,-4.2682,-4.2679,-4.2784,-4.2803,-4.2873,-4.275,-4.2751,-4.2753,0,-4.2698,-4.2705,-4.2756,-4.2747,-4.2754,-4.2776,-4.2783,-4.2797,-4.2797,-4.2788,-4.2793,-4.2769,-4.2796,-4.2756,-4.2792,-4.2762,-4.2769,-4.2765,-4.2767,-4.2764,-4.2719,-4.2782,-4.2895,-4.2905,-4.2767,-4.2766,-4.2765,0,-4.2777,-4.28,-4.2833,-4.2835,-4.2826,-4.2842,-4.2839,-4.2836,-4.2843,-4.285,-4.2854,-4.2865,-4.287,-4.2878,-4.2858,-4.2831,-4.2895,-4.2854,-4.2887,-4.2888,-4.29,-4.2898,-4.3013,-4.291,-4.291,-4.291,-4.291,0,-4.2865,-4.2897,-4.2868,-4.2888,-4.2922,-4.2896,-4.2931,-4.2924,-4.2922,-4.2939,-4.2909,-4.2926,-4.29,-4.2915,-4.2899,-4.293,-4.2933,-4.2926,-4.2921,-4.2927,-4.2927,-4.2928,-4.2921,-4.2912,-4.2912,-4.2911,-4.2911,0,-4.2958,-4.294,-4.2973,-4.2962,-4.296,-4.2985,-4.2976,-4.2993,-4.2982,-4.3005,-4.3009,-4.2991,-4.3006,-4.2988,-4.3002,-4.2992,-4.3032,-4.3022,-4.3032,-4.3027,-4.306,-4.3056,-4.3176,-4.319,-4.3082,-4.3083,-4.3084,0,-4.3013,-4.3036,-4.3028,-4.3037,-4.3036,-4.3051,-4.3058,-4.3035,-4.3043,-4.3044,-4.3061,-4.3074,-4.3083,-4.311,-4.3098,-4.3108,-4.3096,-4.3137,-4.3097,-4.3102,-4.3093,-4.309,-4.3091,-4.3144,-4.3146,-4.3147,-4.3147,0,-4.3112,-4.3102,-4.3113,-4.3121,-4.313,-4.3135,-4.3138,-4.3148,-4.3123,-4.3135,-4.3149,-4.3156,-4.3171,-4.3183,-4.3191,-4.3188,-4.3163,-4.3161,-4.3168,-4.3173,-4.3176,-4.3172,-4.305,-4.3157,-4.3156,-4.3155,-4.3155,-4.3155,-4.3185,-4.3204,-4.32,-4.3213,-4.3213,-4.3216,-4.3231,-4.3222,-4.3234,-4.3243,-4.3229,-4.3247,-4.3246,-4.3253,-4.3253,-4.3267,-4.3249,-4.3261,-4.3263,-4.3266,-4.3269,-4.3177,-4.3269,-4.3268,-4.3268,-4.3268,-4.3268,0,-4.328,-4.3276,-4.3288,-4.3293,-4.3303,-4.328,-4.3282,-4.3292,-4.3308,-4.3309,-4.3318,-4.3335,-4.3347,-4.3337,-4.3346,-4.3359,-4.3348,-4.3363,-4.336,-4.3359,-4.3286,-4.3277,-4.3371,-4.3371,-4.3371,-4.3371,-4.3371,-4.3371,-4.333,-4.3359,-4.3348,-4.3377,-4.3372,-4.3389,-4.3392,-4.3395,-4.3395,-4.3415,-4.3424,-4.3418,-4.3413,-4.3423,-4.3433,-4.3429,-4.3433,-4.3451,-4.3443,-4.3375,-4.3364,-4.3354,-4.3345,-4.3453,-4.3453,-4.3514,-4.3515,-4.3515]},{"header":{"parameterUnit":"m.s-1","parameterCategory":1,"la1":30.2991,"la2":30.254,"lo1":-89.0895,"lo2":-89.0444,"dy":0.0017,"dx":0.0017,"nx":28,"ny":28,"refTime":"2024-06-15T09:00:00:Z","depth":0,"parameterNumber":3,"parameterNumberName":"V-component_of_WINDS"},"data":[0,0,0,0,0,0,0,0,0,0,0,0,0,0,0,0,0,0,0,0,0,0,0,0,0,0,0,0,0,0,0,0,0,0,0,0,0,0,0,0,0,0,0,0,0,0,0,0,0,0,0,0,0,0,0,0,0,0,3.4667,3.4668,0,3.4763,3.4764,3.4765,3.4762,3.476,3.4759,3.4758,3.485,3.4854,3.4857,0,0,0,0,0,0,0,0,0,0,0,0,0,3.4474,3.4478,3.4667,3.4668,3.4669,3.4763,3.4764,3.4766,3.4762,3.476,3.4759,3.4757,3.4849,3.4853,3.4858,0,0,0,0,0,0,0,0,0,0,0,0,0,3.4563,3.4479,3.4667,3.4679,3.4681,3.4763,3.4764,3.4766,3.4762,3.476,3.4758,3.4756,3.4847,3.4853,3.4858,3.4932,0,0,3.4875,3.4878,0,0,0,0,0,0,0,0,3.4558,3.457,3.4676,3.4678,3.4681,3.4749,3.473,3.4822,3.4763,3.4731,3.4758,3.4755,3.4817,3.4825,3.4848,3.4937,3.4941,3.4876,3.4879,3.4881,3.4883,0,0,0,0,0,0,0,3.4552,3.4566,3.4705,3.4677,3.468,3.4678,3.4688,3.4748,3.4784,3.4734,3.4734,3.4746,3.4818,3.4842,3.485,3.4942,3.4876,3.488,3.4884,3.4886,3.5096,3.5098,0,0,0,0,0,0,3.4544,3.4561,3.4702,3.4708,3.4613,3.4683,3.4694,3.4729,3.4784,3.479,3.4747,3.4745,3.4834,3.4843,3.4853,3.4943,3.4881,3.4887,3.489,3.5094,3.5097,3.5099,0,0,0,0,0,0,3.454,3.4556,3.4698,3.4634,3.4652,3.4688,3.4727,3.4732,3.4756,3.4794,3.48,3.4765,3.4833,3.4845,3.4913,3.4946,3.4889,3.4894,3.5091,3.5095,3.5098,3.5124,0,0,0,0,0,0,3.4534,3.4555,3.4585,3.4635,3.4656,3.4758,3.4729,3.4735,3.4766,3.4764,3.4812,3.4818,3.4832,3.4905,3.4919,3.4953,3.4898,3.5088,3.5093,3.5097,3.512,3.5128,3.5134,0,0,0,0,0,3.4527,3.4587,3.4586,3.4603,3.4694,3.476,3.4772,3.4788,3.4769,3.4798,3.4822,3.4817,3.4941,3.4912,3.4927,3.4964,3.5086,3.5092,3.5096,3.5117,3.5126,3.5134,0,0,0,0,0,0,3.4537,3.4594,3.4593,3.4672,3.4711,3.4759,3.4797,3.4797,3.4841,3.4838,3.4854,3.4865,3.4933,3.4955,3.4922,3.5038,3.5011,3.5019,3.5021,3.503,3.5037,3.5029,3.4903,0,0,0,0,0,3.4549,3.46,3.4646,3.471,3.473,3.476,3.479,3.4799,3.484,3.4856,3.4885,3.4924,3.4971,3.5002,3.5048,3.5124,3.5133,3.5156,3.5163,3.5169,3.5175,3.5216,3.5227,3.5116,3.5116,3.5116,0,0,3.4572,3.461,3.464,3.4713,3.4745,3.4795,3.4774,3.4828,3.4866,3.4863,3.493,3.4953,3.4996,3.5069,3.5102,3.5089,3.5208,3.5175,3.5179,3.5183,3.5223,3.5233,3.5242,3.5119,3.5119,3.5118,0,0,3.4641,3.4675,3.4733,3.4766,3.4815,3.4835,3.4849,3.4897,3.4913,3.4981,3.498,3.5023,3.5105,3.5136,3.5163,3.5245,3.5241,3.5259,3.5295,3.5335,3.5344,3.5351,3.538,3.539,3.5266,3.5266,3.5266,0,3.4664,3.4742,3.4762,3.4817,3.4848,3.4851,3.4909,3.4939,3.5,3.502,3.5006,3.5109,3.5138,3.5218,3.5238,3.526,3.5274,3.5253,3.5341,3.5349,3.5357,3.5384,3.5395,3.5268,3.5268,3.5267,3.5267,0,3.4767,3.4822,3.4862,3.4923,3.4959,3.5015,3.5041,3.5075,3.5081,3.5102,3.517,3.5206,3.5259,3.5279,3.5284,3.5359,3.5349,3.5338,3.5311,3.5369,3.5395,3.5405,3.527,3.527,3.5269,3.5269,0,0,3.4844,3.4917,3.4931,3.4959,3.5014,3.5055,3.5111,3.5165,3.5193,3.5235,3.5281,3.5351,3.5341,3.5371,3.538,3.5416,3.5477,3.54,3.5401,3.5412,3.556,3.5568,3.5579,3.5476,3.5478,3.5479,3.5556,0,3.4918,3.5019,3.5039,3.5126,3.5175,3.5179,3.5227,3.5265,3.5286,3.533,3.5352,3.5401,3.5385,3.5403,3.5438,3.5462,3.5507,3.5457,3.5516,3.5518,3.5505,3.5593,3.5601,3.5672,3.5566,3.5568,3.5569,0,3.5018,3.5065,3.5158,3.5207,3.5228,3.5272,3.5323,3.5365,3.5408,3.5421,3.5455,3.5461,3.5517,3.5488,3.5565,3.553,3.5556,3.5571,3.5574,3.5579,3.5547,3.5599,3.5695,3.5705,3.5586,3.5584,3.5583,0,3.5064,3.515,3.5217,3.5241,3.53,3.533,3.5355,3.5396,3.5428,3.5472,3.5492,3.5541,3.5568,3.5605,3.5623,3.5601,3.5698,3.5671,3.5709,3.5708,3.5728,3.5726,3.5828,3.5746,3.5746,3.5746,3.5746,0,3.5145,3.5201,3.5239,3.5279,3.5342,3.5363,3.5424,3.5448,3.5485,3.5529,3.5535,3.5576,3.5598,3.5642,3.5656,3.5717,3.5729,3.574,3.5742,3.5739,3.5737,3.5755,3.575,3.5749,3.5748,3.5748,3.5747,0,3.5206,3.5234,3.5306,3.5357,3.5371,3.5415,3.5457,3.5496,3.5517,3.5573,3.5587,3.562,3.5672,3.5695,3.5758,3.5767,3.5836,3.5836,3.5823,3.5823,3.5859,3.5855,3.5975,3.5991,3.5899,3.59,3.5901,0,3.5255,3.5299,3.5354,3.5386,3.5413,3.5463,3.5495,3.5517,3.5551,3.5603,3.5635,3.5688,3.5731,3.5813,3.5842,3.589,3.589,3.5929,3.5897,3.5892,3.5889,3.5886,3.589,3.5934,3.5935,3.5935,3.5936,0,3.5339,3.5351,3.5399,3.5452,3.5491,3.5534,3.5575,3.5599,3.5627,3.5664,3.5719,3.5753,3.5818,3.587,3.592,3.5944,3.5944,3.5946,3.5957,3.5953,3.5943,3.5948,3.5837,3.5943,3.5942,3.5942,3.5941,3.5941,3.5395,3.5434,3.548,3.5533,3.5567,3.5605,3.5645,3.5672,3.5718,3.5775,3.5784,3.5842,3.5883,3.5951,3.5977,3.6021,3.6011,3.6027,3.6031,3.6035,3.6036,3.5937,3.603,3.603,3.603,3.603,3.6029,0,3.5478,3.5508,3.5557,3.5616,3.5658,3.5657,3.5703,3.5737,3.5788,3.5828,3.5871,3.5933,3.5983,3.6015,3.6066,3.6095,3.6096,3.6107,3.6104,3.611,3.6043,3.6028,3.6105,3.6105,3.6105,3.6105,3.6105,3.6105,3.5527,3.5593,3.561,3.5692,3.5721,3.578,3.5806,3.5841,3.5872,3.5942,3.5985,3.6006,3.6043,3.6096,3.6141,3.6149,3.6167,3.6178,3.6186,3.6122,3.6114,3.6107,3.6093,3.6182,3.6182,3.6249,3.6249,3.625]}]]